[[{"header":{"parameterUnit":"m.s-1","parameterCategory":1,"la1":30.2991,"la2":30.254,"lo1":-89.0895,"lo2":-89.0444,"dy":0.0017,"dx":0.0017,"nx":28,"ny":28,"refTime":"2024-06-18T21:00:00:Z","depth":0,"parameterNumber":2,"parameterNumberName":"U-component_of_WINDS"},"data":[0,0,0,0,0,0,0,0,0,0,0,0,0,0,0,0,0,0,0,0,0,0,0,0,0,0,0,0,0,0,0,0,0,0,0,0,0,0,0,0,0,0,0,0,0,0,0,0,0,0,0,0,0,0,0,0,0,0,-9.8681,-9.8681,0,-9.8673,-9.8673,-9.8673,-9.8441,-9.8434,-9.8428,-9.8423,-9.8414,-9.842,-9.8425,0,0,0,0,0,0,0,0,0,0,0,0,0,-9.8493,-9.8498,-9.8681,-9.868,-9.868,-9.8673,-9.8673,-9.8673,-9.8442,-9.8434,-9.8427,-9.842,-9.8413,-9.8419,-9.8425,0,0,0,0,0,0,0,0,0,0,0,0,0,-9.8539,-9.8499,-9.8681,-9.8564,-9.8554,-9.8673,-9.8673,-9.8673,-9.8443,-9.8434,-9.8425,-9.8417,-9.841,-9.8418,-9.8426,-9.8656,0,0,-9.8451,-9.8454,0,0,0,0,0,0,0,0,-9.8537,-9.8546,-9.8581,-9.8572,-9.8561,-9.8548,-9.8603,-9.8667,-9.8445,-9.8485,-9.8423,-9.8412,-9.8466,-9.8469,-9.8487,-9.8656,-9.8656,-9.8452,-9.8456,-9.846,-9.8462,0,0,0,0,0,0,0,-9.8534,-9.8545,-9.8677,-9.8582,-9.857,-9.8512,-9.8508,-9.8615,-9.8526,-9.8481,-9.8464,-9.8466,-9.8459,-9.848,-9.8486,-9.8655,-9.8451,-9.8459,-9.8464,-9.8467,-9.901,-9.902,0,0,0,0,0,0,-9.8547,-9.8544,-9.8678,-9.8677,-9.8526,-9.8523,-9.8519,-9.8562,-9.8524,-9.851,-9.8474,-9.8456,-9.8471,-9.8476,-9.8484,-9.8748,-9.846,-9.8467,-9.8472,-9.9001,-9.9013,-9.9023,0,0,0,0,0,0,-9.8544,-9.8561,-9.8678,-9.8606,-9.8617,-9.8535,-9.8585,-9.8566,-9.8587,-9.8519,-9.8502,-9.8512,-9.8464,-9.8473,-9.8615,-9.8745,-9.8471,-9.8478,-9.899,-9.9005,-9.9018,-9.9281,0,0,0,0,0,0,-9.854,-9.8561,-9.8648,-9.861,-9.8621,-9.881,-9.8593,-9.8573,-9.8602,-9.8578,-9.8551,-9.8537,-9.8458,-9.8604,-9.8623,-9.8751,-9.8485,-9.8977,-9.8996,-9.9013,-9.926,-9.9303,-9.9339,0,0,0,0,0,-9.8534,-9.8723,-9.8654,-9.8671,-9.8728,-9.8818,-9.8824,-9.8728,-9.8613,-9.8699,-9.8656,-9.8538,-9.8729,-9.8621,-9.864,-9.8773,-9.8969,-9.8991,-9.9012,-9.9243,-9.9294,-9.9338,0,0,0,0,0,0,-9.8778,-9.8716,-9.8638,-9.8821,-9.8827,-9.8778,-9.8883,-9.8787,-9.8825,-9.88,-9.868,-9.8676,-9.8837,-9.8819,-9.8699,-9.8993,-9.8828,-9.8855,-9.8997,-9.9046,-9.9084,-9.9083,-9.8491,0,0,0,0,0,-9.8853,-9.8931,-9.8873,-9.9039,-9.9046,-9.8966,-9.9001,-9.8927,-9.8928,-9.8929,-9.8895,-9.89,-9.896,-9.9003,-9.9055,-9.9259,-9.9248,-9.936,-9.9399,-9.9432,-9.9454,-9.9558,-9.9606,-9.9094,-9.9094,-9.9093,0,0,-9.9009,-9.8984,-9.9041,-9.9088,-9.9083,-9.9166,-9.8969,-9.9065,-9.9124,-9.8943,-9.9073,-9.9051,-9.9048,-9.9221,-9.9296,-9.9212,-9.9594,-9.9459,-9.9486,-9.949,-9.9586,-9.9634,-9.9677,-9.9109,-9.9106,-9.9104,0,0,-9.9333,-9.9325,-9.9461,-9.9461,-9.9457,-9.9402,-9.9436,-9.9403,-9.938,-9.951,-9.9375,-9.9446,-9.9553,-9.9556,-9.9572,-9.9901,-9.9793,-9.9922,-10.0125,-10.0228,-10.0269,-10.0304,-10.0418,-10.046,-9.9946,-9.9947,-9.9947,0,-9.9526,-9.9646,-9.9543,-9.9648,-9.9672,-9.9513,-9.965,-9.9655,-9.9669,-9.9689,-9.9595,-9.9726,-9.9714,-9.9884,-9.9964,-9.9984,-10.0017,-9.9922,-10.0271,-10.0305,-10.0337,-10.0444,-10.0487,-9.9962,-9.996,-9.9958,-9.9957,0,-9.9882,-9.9967,-10.0078,-10.0095,-10.0132,-10.0253,-10.0168,-10.0218,-10.0143,-10.0098,-10.0232,-10.0212,-10.0257,-10.0293,-10.022,-10.0454,-10.0401,-10.0292,-10.0123,-10.0402,-10.0501,-10.0542,-9.9984,-9.9978,-9.9974,-9.997,0,0,-10.0356,-10.0316,-10.0358,-10.0363,-10.0349,-10.0412,-10.0526,-10.057,-10.0614,-10.0631,-10.0721,-10.0817,-10.0715,-10.0734,-10.0661,-10.0752,-10.101,-10.063,-10.0628,-10.0698,-10.1263,-10.1342,-10.1391,-10.0941,-10.0948,-10.0954,-10.1261,0,-10.0666,-10.0857,-10.0769,-10.0969,-10.1045,-10.0898,-10.0996,-10.0998,-10.0961,-10.102,-10.0978,-10.1046,-10.0909,-10.0919,-10.1003,-10.0961,-10.1121,-10.0938,-10.1022,-10.1026,-10.1022,-10.1443,-10.1527,-10.1817,-10.13,-10.1306,-10.1311,0,-10.1053,-10.1085,-10.1293,-10.1264,-10.1292,-10.1383,-10.1415,-10.1475,-10.1474,-10.144,-10.1463,-10.1368,-10.1477,-10.1315,-10.1462,-10.134,-10.1369,-10.1355,-10.1363,-10.1363,-10.1182,-10.145,-10.1908,-10.195,-10.1371,-10.1367,-10.1362,0,-10.1372,-10.1468,-10.1604,-10.1614,-10.1585,-10.1651,-10.1642,-10.1632,-10.1664,-10.1694,-10.1713,-10.1756,-10.1779,-10.1814,-10.1734,-10.1623,-10.1892,-10.1723,-10.1864,-10.1867,-10.1923,-10.192,-10.2387,-10.1951,-10.1951,-10.195,-10.1949,0,-10.1725,-10.1858,-10.1747,-10.1831,-10.1974,-10.1873,-10.2018,-10.1993,-10.1986,-10.2061,-10.1938,-10.2011,-10.1903,-10.1966,-10.1905,-10.2035,-10.2047,-10.2022,-10.2003,-10.203,-10.2033,-10.2044,-10.202,-10.1961,-10.1959,-10.1957,-10.1955,0,-10.2104,-10.2036,-10.2174,-10.2136,-10.2129,-10.2237,-10.2203,-10.2278,-10.2234,-10.2331,-10.2348,-10.2277,-10.2345,-10.227,-10.2333,-10.2291,-10.2465,-10.2419,-10.2465,-10.245,-10.2595,-10.2581,-10.3082,-10.3141,-10.2673,-10.2677,-10.2681,0,-10.2331,-10.2429,-10.2402,-10.2444,-10.2442,-10.2511,-10.2543,-10.2449,-10.2487,-10.2495,-10.2569,-10.2627,-10.2666,-10.2782,-10.2736,-10.2783,-10.2734,-10.2907,-10.274,-10.2764,-10.2732,-10.2725,-10.2733,-10.2939,-10.2945,-10.295,-10.2953,0,-10.2741,-10.2702,-10.2753,-10.2794,-10.2836,-10.2863,-10.2881,-10.2922,-10.2824,-10.2874,-10.2941,-10.2973,-10.3037,-10.3095,-10.3129,-10.3119,-10.302,-10.3007,-10.3041,-10.3068,-10.3088,-10.3075,-10.2553,-10.2995,-10.299,-10.2987,-10.2985,-10.2984,-10.3047,-10.3127,-10.312,-10.3181,-10.3185,-10.3204,-10.3272,-10.3237,-10.3292,-10.3336,-10.3278,-10.3361,-10.3358,-10.3394,-10.3396,-10.3459,-10.3385,-10.3436,-10.3448,-10.3461,-10.3481,-10.3083,-10.3466,-10.3465,-10.3463,-10.3462,-10.3461,0,-10.3446,-10.3435,-10.3493,-10.3521,-10.3569,-10.3475,-10.3489,-10.3536,-10.3611,-10.3617,-10.3659,-10.3737,-10.3793,-10.3754,-10.3801,-10.3859,-10.3815,-10.3874,-10.3866,-10.3865,-10.3546,-10.351,-10.3909,-10.3909,-10.3909,-10.3909,-10.3909,-10.3909,-10.3659,-10.3787,-10.3749,-10.3879,-10.3866,-10.3947,-10.3963,-10.3981,-10.3984,-10.4077,-10.4123,-10.4097,-10.4084,-10.413,-10.4177,-10.4164,-10.4185,-10.426,-10.4231,-10.3932,-10.3888,-10.3846,-10.381,-10.4267,-10.4267,-10.4543,-10.4546,-10.4548]},{"header":{"parameterUnit":"m.s-1","parameterCategory":1,"la1":30.2991,"la2":30.254,"lo1":-89.0895,"lo2":-89.0444,"dy":0.0017,"dx":0.0017,"nx":28,"ny":28,"refTime":"2024-06-18T21:00:00:Z","depth":0,"parameterNumber":3,"parameterNumberName":"V-component_of_WINDS"},"data":[0,0,0,0,0,0,0,0,0,0,0,0,0,0,0,0,0,0,0,0,0,0,0,0,0,0,0,0,0,0,0,0,0,0,0,0,0,0,0,0,0,0,0,0,0,0,0,0,0,0,0,0,0,0,0,0,0,0,1.2238,1.2238,0,1.2303,1.2303,1.2304,1.2344,1.2344,1.2344,1.2344,1.2408,1.241,1.2411,0,0,0,0,0,0,0,0,0,0,0,0,0,1.2146,1.2148,1.2237,1.2238,1.2239,1.2303,1.2303,1.2304,1.2344,1.2344,1.2344,1.2344,1.2408,1.2409,1.2411,0,0,0,0,0,0,0,0,0,0,0,0,0,1.2196,1.2148,1.2237,1.2266,1.227,1.2302,1.2303,1.2305,1.2344,1.2344,1.2344,1.2344,1.2407,1.2409,1.2411,1.2419,0,0,1.2418,1.2419,0,0,0,0,0,0,0,0,1.2193,1.2199,1.2261,1.2265,1.2268,1.2315,1.2295,1.2343,1.2343,1.2315,1.2344,1.2345,1.2377,1.2382,1.2393,1.2422,1.2425,1.2419,1.242,1.2421,1.2421,0,0,0,0,0,0,0,1.219,1.2197,1.2263,1.2262,1.2266,1.2276,1.2283,1.2304,1.2343,1.2318,1.2321,1.2328,1.2379,1.2391,1.2395,1.2426,1.2418,1.242,1.2422,1.2423,1.2467,1.2467,0,0,0,0,0,0,1.2182,1.2194,1.2261,1.2265,1.2231,1.2277,1.2286,1.23,1.2343,1.235,1.2328,1.233,1.2387,1.2392,1.2397,1.2411,1.2421,1.2423,1.2424,1.2467,1.2467,1.2467,0,0,0,0,0,0,1.218,1.2187,1.2258,1.223,1.224,1.2279,1.2294,1.2301,1.2313,1.2351,1.2358,1.2333,1.2387,1.2394,1.2414,1.2413,1.2424,1.2426,1.2468,1.2467,1.2467,1.2437,0,0,0,0,0,0,1.2177,1.2186,1.219,1.223,1.2241,1.2275,1.2294,1.2302,1.2317,1.232,1.2358,1.2364,1.2388,1.2411,1.2416,1.2417,1.2428,1.2468,1.2467,1.2467,1.2438,1.2435,1.2433,0,0,0,0,0,1.2173,1.2178,1.219,1.2198,1.2247,1.2274,1.2281,1.2309,1.2317,1.2321,1.2346,1.2363,1.2413,1.2412,1.2419,1.242,1.2468,1.2468,1.2467,1.2439,1.2436,1.2433,0,0,0,0,0,0,1.2134,1.2183,1.2197,1.2215,1.224,1.2281,1.2286,1.2304,1.2327,1.2329,1.2363,1.2371,1.2388,1.2406,1.2405,1.2431,1.2442,1.2443,1.2418,1.2416,1.2414,1.2409,1.243,0,0,0,0,0,1.2128,1.2147,1.2189,1.22,1.2212,1.2247,1.226,1.228,1.2308,1.2318,1.2344,1.237,1.2391,1.2405,1.2426,1.2441,1.245,1.2445,1.2443,1.2441,1.2441,1.2452,1.245,1.2466,1.2466,1.2466,0,0,1.2115,1.2144,1.2154,1.2193,1.2215,1.2234,1.2256,1.2274,1.2289,1.2321,1.2342,1.2362,1.2393,1.2411,1.242,1.2426,1.2439,1.244,1.2438,1.244,1.2451,1.245,1.2448,1.2465,1.2465,1.2465,0,0,1.21,1.2124,1.2137,1.2159,1.2193,1.2217,1.222,1.2259,1.2274,1.2296,1.2321,1.2339,1.2375,1.2396,1.2412,1.2408,1.2425,1.2414,1.2402,1.2412,1.2411,1.241,1.2409,1.2409,1.2414,1.2414,1.2414,0,1.2079,1.2109,1.2141,1.2159,1.2176,1.2208,1.2221,1.2241,1.228,1.2291,1.2298,1.2346,1.2368,1.2392,1.2392,1.2403,1.2408,1.241,1.2408,1.2408,1.2407,1.2407,1.2407,1.2413,1.2413,1.2413,1.2413,0,1.2082,1.2103,1.2109,1.2148,1.2166,1.2181,1.2215,1.2229,1.2248,1.2271,1.2294,1.2323,1.2352,1.2359,1.2377,1.2386,1.239,1.2402,1.2414,1.2404,1.2404,1.2405,1.2411,1.2411,1.2412,1.2412,0,0,1.2043,1.2101,1.2103,1.2122,1.2163,1.2179,1.2197,1.2227,1.2239,1.2265,1.2281,1.2312,1.2325,1.2342,1.2363,1.2372,1.2368,1.2383,1.2385,1.238,1.2382,1.2373,1.2372,1.238,1.2381,1.2381,1.238,0,1.2035,1.2069,1.2099,1.2122,1.2142,1.2174,1.2189,1.2216,1.2238,1.2259,1.2283,1.2305,1.2319,1.2331,1.2341,1.2367,1.2369,1.2367,1.2395,1.2396,1.2387,1.2372,1.2362,1.2359,1.238,1.238,1.238,0,1.2029,1.2056,1.2082,1.2123,1.2133,1.2146,1.2177,1.2196,1.2227,1.2243,1.2264,1.2287,1.2307,1.2317,1.2346,1.2344,1.2358,1.2373,1.2373,1.2377,1.2387,1.2376,1.2359,1.2359,1.2381,1.2381,1.2381,0,1.1999,1.2042,1.2063,1.2078,1.2126,1.2136,1.2156,1.2188,1.2205,1.2232,1.2243,1.2271,1.2287,1.2308,1.2338,1.2343,1.2364,1.2377,1.2378,1.2377,1.238,1.238,1.2366,1.2389,1.2389,1.2389,1.2389,0,1.1987,1.2002,1.2051,1.2064,1.2081,1.2116,1.2132,1.2155,1.2184,1.2202,1.2231,1.2247,1.2285,1.2306,1.233,1.2351,1.2357,1.2371,1.2377,1.2368,1.2366,1.2377,1.2378,1.2389,1.2389,1.2389,1.2389,0,1.1956,1.199,1.2015,1.206,1.2071,1.2082,1.212,1.2134,1.2159,1.2182,1.2189,1.2228,1.2255,1.2287,1.2323,1.2339,1.2358,1.2366,1.2347,1.2351,1.2351,1.235,1.2344,1.2345,1.2366,1.2366,1.2365,0,1.1946,1.1958,1.2005,1.202,1.204,1.2063,1.2081,1.2117,1.2134,1.2173,1.2182,1.2211,1.2236,1.2277,1.2308,1.2336,1.2346,1.2342,1.235,1.2342,1.2347,1.2346,1.2348,1.2339,1.2339,1.2339,1.2338,0,1.1925,1.1942,1.1967,1.1999,1.202,1.2046,1.2073,1.2084,1.2125,1.2143,1.2171,1.2191,1.2229,1.2258,1.2291,1.2312,1.2332,1.2336,1.2338,1.2329,1.2318,1.2325,1.2341,1.2336,1.2336,1.2336,1.2336,1.2336,1.1905,1.1918,1.1953,1.1981,1.2006,1.2032,1.2048,1.2076,1.21,1.2135,1.2154,1.2182,1.2215,1.2262,1.2282,1.2305,1.2312,1.2314,1.2315,1.2315,1.2313,1.2315,1.2311,1.2311,1.2311,1.2311,1.2311,0,1.1886,1.1911,1.1936,1.1975,1.1997,1.2016,1.2048,1.2065,1.209,1.2119,1.2144,1.2178,1.2206,1.224,1.2271,1.2283,1.2293,1.229,1.2289,1.2294,1.2304,1.23,1.2281,1.2281,1.2281,1.2281,1.2281,1.2281,1.1878,1.1902,1.1923,1.196,1.1985,1.2014,1.203,1.2055,1.2079,1.2115,1.214,1.2162,1.2194,1.2228,1.2256,1.2265,1.2275,1.2269,1.2281,1.229,1.2293,1.2295,1.2291,1.2271,1.2271,1.2269,1.2269,1.2269]}]]